08:45
Airports
History
Links
Donate
Help keep this website running!
PayPal
Bitcoin
This page is community maintained. The information is intended for PC simulator navigation or reference.
Always use approved charts for navigation.
LICT
TRAPANI BIRGI
TRAPANI BIRGI (LICT)
Trapani, Sicily, Italy (91100)
(C)
Lat/Lng:37° 54' 41.1" N / 12° 29' 16.58" E
37.911417 / 12.487938
Elevation:24'ft / 7mMSL
ID / ICAO:LICT
Runways:1
Longest:13-31
Asphalt 2,688m / 8,818ft
Controlled:Yes
METAR07:55 GMT 2018-02-21
Altimeter: 29.53
Visibility: 6.2 statute miles
Wind: 9 knots (from 340°)
Temp: 10°c / 50°f
Humidity: 76.2%

METAR: LICT 210755Z 34009KT 9999 FEW020 BKN030 10/06 Q1000

(Powered by phpweather)
Airport Radio Frequencies
Tower: 119.7, 122.1
Approach: 119.95, 122.1
Nearby VORs <50NM
Nearby NDBs
Runway 13 / 31
Dimensions:2687.6 x 45.1m 8818' x 148'ft
Surface:Asphalt
Edge Lights:Medium intensity
Runway 13 [A]Runway 31 [B]
Heading:127°TH 307°TH
Lat:
Lng:
37° 55' 7.76"N
12° 28' 32.94"E
37° 54' 14.44"N
12° 30' 0.21"E
ALS:SALSSALS
User Notes and Comments
37° 54' 41.1" N / 12° 29' 16.58" E
Distance To
Airport ID:
Nearby Airports
(C) PALERMO 38.1 NM
LICJ ( WX ) ENE 61°
(U) BOCCADIFALCO 47.0 NM
LICP ( WX ) ENE 72°
(C) PANTELLERIA 81.1 NM
LICG ( WX ) SSW 200°
(C) Magliocco 132.3 NM
LICB ESE 118°
(C) SIGONELLA 137.7 NM
LICZ ( WX ) ESE 104°
(C) CARTHAGE 143.8 NM
DTTA ( WX ) WSW 239°
(C) Catania Fontanarossa 144.3 NM
LICC ( WX ) ESE 102°
VFR Chart
Flight Planning at SkyVector.com